Regional Weather Roundup
Issued by NWS

Home | Current Version | Previous Version | Graphics & Text | Print | Product List | Glossary On
Versions: 1 2 3 4 5 6 7 8 9 10 11 12 13 14 15 16 17 18 19 20 21 22 23 24 25 26 27 28 29 30 31 32 33 34 35 36 37 38 39 40 41 42 43 44 45 46 47 48 49 50
000
ASUS43 KLSX 090310
RWRMO

WEATHER SUMMARY FOR MISSOURI
NATIONAL WEATHER SERVICE SPRINGFIELD MO
900 PM CST MON FEB 08 2016

NOTE: "FAIR" INDICATES FEW OR NO CLOUDS BELOW 12,000 FEET WITH NO
       SIGNIFICANT WEATHER AND/OR OBSTRUCTIONS TO VISIBILITY.
       CURRENT SKY AND/OR WEATHER CONDITIONS ARE NOT AVAILABLE FOR
       CHILLICOTHE AND FARMINGTON.

MOZ001>031-035>038-043-044-053-054-090400-
...NORTHERN AND WESTERN MISSOURI...

CITY           SKY/WX    TMP DP  RH WIND       PRES   REMARKS
KANSAS CTY INT MOCLDY    27  17  66 NW12      30.08F WCI  17
KANSAS C DTWN  PTCLDY    30  16  56 N10G20    30.10S WCI  21
LEE`S SUMMIT   PTCLDY    28  15  58 NW13      30.08S WCI  17
ST JOSEPH      PTCLDY    27  17  66 N10       30.10F WCI  17
CHILLICOTHE      N/A     25  16  68 NW13G24   30.05F WCI  14
KIRKSVILLE     FLURRIES  20  11  68 NW15      29.98F WCI   6

$$
MOZ066>068-077>081-088>096-101>105-090400-
...SOUTHWEST MISSOURI...

CITY           SKY/WX    TMP DP  RH WIND       PRES   REMARKS
SPRINGFIELD    PTCLDY    30  13  49 NW16G26   30.03S WCI  19
JOPLIN         CLEAR     31  15  52 NW13      30.12F WCI  21

$$
MOZ032>034-039>042-045>050-055>058-069>072-090400-
...CENTRAL MISSOURI...

CITY           SKY/WX    TMP DP  RH WIND       PRES   REMARKS
COLUMBIA       CLOUDY    23  13  65 NW22G31   29.99F WCI   8
JEFFERSON CITY FLURRIES  24  16  71 NW15      30.02F WCI  11
ROLLA          CLOUDY    23  15  71 W15G25    29.95F WCI  10
SEDALIA        CLOUDY    28  16  60 NW18G26   30.04F WCI  15
WHITEMAN AFB   CLOUDY    27  16  64 NW17G23   30.04F WCI  14
WARRENSBURG    MOCLDY    28  18  64 NW10G18   30.07S WCI  19
OSAGE BEACH    CLOUDY    27  12  54 NW13G21   30.02F WCI  16

$$
MOZ051-052-059>065-090400-
...EAST CENTRAL MISSOURI...

CITY           SKY/WX    TMP DP  RH WIND       PRES   REMARKS
ST LOUIS INTL  FLURRIES  24  13  62 NW14G25   29.95S WCI  12
SPIRIT OF STL  CLOUDY    24  13  62 NW17      29.96S WCI  11
ST CHARLES     CLOUDY    23  13  65 NW17G25   29.95F WCI   9

$$
MOZ072>076-082>087-097>100-106>115-090400-
...SOUTH CENTRAL AND SOUTHEAST MISSOURI...

CITY           SKY/WX    TMP DP  RH WIND       PRES   REMARKS
CAPE GIRARDEAU CLOUDY    29  16  58 NW10      29.95F WCI  20
FARMINGTON     CLOUDY    25  14  63 NW13      29.93F WCI  14
POPLAR BLUFF   CLOUDY    31  16  54 NW17G25   29.97S WCI  19
WEST PLAINS    FLURRIES  28  19  69 NW15G26   29.99S WCI  16

$$



USA.gov is the U.S. government's official web portal to all federal, state and local government web resources and services.